When you browse on this site, cookies collect data to enhance your experience and personalize the content and advertising you see.
Visit our Privacy Policy to learn more. By continuing to use the site, you agree to this use of cookies and data.
  • In Österreich
  • Länderverzeichnis
  • Für 7 Tage
  • Wassertemperatur
  • Wetterkarte
  • News
  • Widgets
  • user-avatar
    Anmelden

    Stündliche Wetter Wien

    Heute, 27 Mai, Mittwoch

    Zeit Temperatur Niederschläge Wind Luftdruck Luftfeuchtigkeit
    00:00 +9°C° 0 mm 3 m/S 755 mmHg 85%
    01:00 +9°C° 0 mm 3 m/S 755 mmHg 87%
    02:00 +8°C° 0 mm 3 m/S 755 mmHg 87%
    03:00 +8°C° 0 mm 3 m/S 755 mmHg 88%
    04:00 +8°C° 0 mm 3 m/S 755 mmHg 88%
    05:00 +9°C° 0 mm 3 m/S 754 mmHg 85%
    06:00 +10°C° 0 mm 3 m/S 754 mmHg 82%
    07:00 +11°C° 0 mm 4 m/S 754 mmHg 79%
    08:00 +13°C° 0 mm 4 m/S 754 mmHg 72%
    09:00 +15°C° 0 mm 4 m/S 754 mmHg 65%
    10:00 +17°C° 0 mm 4 m/S 754 mmHg 58%
    11:00 +18°C° 0 mm 4 m/S 754 mmHg 55%
    12:00 +19°C° 0 mm 4 m/S 753 mmHg 52%
    13:00 +20°C° 0 mm 4 m/S 753 mmHg 49%
    14:00 +20°C° 0 mm 4 m/S 752 mmHg 49%
    15:00 +20°C° 0 mm 5 m/S 752 mmHg 49%
    16:00 +20°C° 0 mm 5 m/S 752 mmHg 49%
    17:00 +19°C° 0 mm 4 m/S 752 mmHg 55%
    18:00 +18°C° 0 mm 4 m/S 751 mmHg 61%
    19:00 +17°C° 0 mm 3 m/S 751 mmHg 67%
    20:00 +16°C° 0 mm 3 m/S 752 mmHg 70%
    21:00 +14°C° 0 mm 2 m/S 752 mmHg 73%
    22:00 +13°C° 0 mm 2 m/S 752 mmHg 76%
    23:00 +13°C° 0 mm 2 m/S 752 mmHg 78%

    Morgen, 28 Mai, Donnerstag

    Zeit Temperatur Niederschläge Wind Luftdruck Luftfeuchtigkeit
    00:00 +12°C° 0 mm 2 m/S 752 mmHg 79%
    01:00 +12°C° 0 mm 2 m/S 751 mmHg 81%
    02:00 +10°C° 0 mm 2 m/S 751 mmHg 81%
    03:00 +10°C° 0 mm 2 m/S 751 mmHg 81%
    04:00 +10°C° 0 mm 2 m/S 750 mmHg 82%
    05:00 +12°C° 0 mm 2 m/S 750 mmHg 78%
    06:00 +13°C° 0 mm 2 m/S 750 mmHg 74%
    07:00 +14°C° 0 mm 3 m/S 749 mmHg 71%
    08:00 +14°C° 0.1 mm 3 m/S 749 mmHg 72%
    09:00 +14°C° 0.1 mm 3 m/S 749 mmHg 74%
    10:00 +14°C° 0.1 mm 4 m/S 749 mmHg 75%
    11:00 +13°C° 1.6 mm 4 m/S 749 mmHg 80%
    12:00 +12°C° 1.6 mm 5 m/S 749 mmHg 85%
    13:00 +11°C° 1.6 mm 6 m/S 748 mmHg 89%
    14:00 +11°C° 0.3 mm 6 m/S 748 mmHg 86%
    15:00 +11°C° 0.3 mm 6 m/S 748 mmHg 82%
    16:00 +11°C° 0.3 mm 6 m/S 748 mmHg 79%
    17:00 +11°C° 0 mm 6 m/S 748 mmHg 78%
    18:00 +10°C° 0 mm 5 m/S 748 mmHg 78%
    19:00 +10°C° 0 mm 5 m/S 748 mmHg 77%
    20:00 +10°C° 0.3 mm 4 m/S 748 mmHg 80%
    21:00 +10°C° 0.3 mm 3 m/S 748 mmHg 82%
    22:00 +10°C° 0.3 mm 3 m/S 749 mmHg 85%
    23:00 +10°C° 1.3 mm 3 m/S 748 mmHg 87%

    übermorgen, 29 Mai, Freitag

    Zeit Temperatur Niederschläge Wind Luftdruck Luftfeuchtigkeit
    00:00 +10°C° 1.3 mm 4 m/S 748 mmHg 89%
    01:00 +10°C° 1.3 mm 4 m/S 748 mmHg 91%
    02:00 +10°C° 0.3 mm 4 m/S 748 mmHg 90%
    03:00 +10°C° 0.3 mm 4 m/S 748 mmHg 89%
    04:00 +8°C° 0.3 mm 4 m/S 748 mmHg 88%
    05:00 +10°C° 0 mm 4 m/S 748 mmHg 86%
    06:00 +11°C° 0 mm 4 m/S 748 mmHg 84%
    07:00 +10°C° 0 mm 5 m/S 748 mmHg 82%
    08:00 +12°C° 0.1 mm 5 m/S 748 mmHg 78%
    09:00 +13°C° 0.1 mm 5 m/S 748 mmHg 74%
    10:00 +14°C° 0.1 mm 5 m/S 748 mmHg 69%
    11:00 +15°C° 0.2 mm 5 m/S 747 mmHg 67%
    12:00 +16°C° 0.2 mm 5 m/S 747 mmHg 64%
    13:00 +16°C° 0.2 mm 5 m/S 747 mmHg 62%
    14:00 +16°C° 0.1 mm 5 m/S 746 mmHg 62%
    15:00 +17°C° 0.1 mm 4 m/S 746 mmHg 62%
    16:00 +17°C° 0.1 mm 4 m/S 746 mmHg 62%
    17:00 +15°C° 0.1 mm 4 m/S 746 mmHg 66%
    18:00 +14°C° 0.1 mm 3 m/S 746 mmHg 71%
    19:00 +13°C° 0.1 mm 3 m/S 746 mmHg 76%
    20:00 +12°C° 0.1 mm 3 m/S 746 mmHg 78%
    21:00 +11°C° 0.1 mm 3 m/S 746 mmHg 80%
    22:00 +12°C° 0.1 mm 2 m/S 746 mmHg 82%
    23:00 +10°C° 0 mm 2 m/S 746 mmHg 81%

    30 Mai, Samstag

    Zeit Temperatur Niederschläge Wind Luftdruck Luftfeuchtigkeit
    00:00 +10°C° 0 mm 3 m/S 746 mmHg 81%
    01:00 +9°C° 0 mm 3 m/S 746 mmHg 80%
    02:00 +9°C° 0 mm 3 m/S 746 mmHg 81%
    03:00 +8°C° 0 mm 3 m/S 746 mmHg 81%
    04:00 +7°C° 0 mm 3 m/S 746 mmHg 81%
    05:00 +7°C° 0 mm 4 m/S 746 mmHg 77%
    06:00 +8°C° 0 mm 4 m/S 746 mmHg 73%
    07:00 +9°C° 0 mm 5 m/S 746 mmHg 69%
    08:00 +10°C° 0 mm 5 m/S 746 mmHg 64%
    09:00 +12°C° 0 mm 5 m/S 746 mmHg 59%
    10:00 +14°C° 0 mm 5 m/S 746 mmHg 54%
    11:00 +14°C° 0 mm 5 m/S 746 mmHg 52%
    12:00 +15°C° 0 mm 5 m/S 745 mmHg 50%
    13:00 +15°C° 0 mm 5 m/S 745 mmHg 49%
    14:00 +16°C° 0 mm 5 m/S 745 mmHg 49%
    15:00 +16°C° 0 mm 5 m/S 744 mmHg 50%
    16:00 +16°C° 0 mm 5 m/S 744 mmHg 51%
    17:00 +15°C° 0 mm 5 m/S 744 mmHg 56%
    18:00 +14°C° 0 mm 4 m/S 744 mmHg 61%
    19:00 +13°C° 0 mm 3 m/S 744 mmHg 66%
    20:00 +12°C° 0 mm 3 m/S 744 mmHg 69%
    21:00 +11°C° 0 mm 3 m/S 745 mmHg 72%
    22:00 +10°C° 0 mm 3 m/S 745 mmHg 75%
    23:00 +10°C° 0 mm 3 m/S 745 mmHg 78%

    31 Mai, Sonntag

    Zeit Temperatur Niederschläge Wind Luftdruck Luftfeuchtigkeit
    00:00 +9°C° 0 mm 3 m/S 745 mmHg 81%
    01:00 +9°C° 0 mm 3 m/S 745 mmHg 83%
    02:00 +9°C° 0 mm 3 m/S 745 mmHg 84%
    03:00 +8°C° 0 mm 3 m/S 744 mmHg 84%
    04:00 +8°C° 0 mm 3 m/S 744 mmHg 84%
    05:00 +8°C° 0 mm 4 m/S 744 mmHg 80%
    06:00 +11°C° 0 mm 4 m/S 744 mmHg 76%
    07:00 +12°C° 0 mm 5 m/S 744 mmHg 72%
    08:00 +13°C° 0 mm 5 m/S 744 mmHg 67%
    09:00 +14°C° 0 mm 5 m/S 744 mmHg 62%
    10:00 +16°C° 0 mm 6 m/S 744 mmHg 57%
    11:00 +16°C° 0 mm 6 m/S 744 mmHg 56%
    12:00 +17°C° 0 mm 6 m/S 743 mmHg 56%
    13:00 +17°C° 0 mm 6 m/S 743 mmHg 55%
    14:00 +17°C° 0.1 mm 6 m/S 743 mmHg 59%
    15:00 +17°C° 0.1 mm 6 m/S 743 mmHg 62%
    16:00 +16°C° 0.1 mm 6 m/S 743 mmHg 66%
    17:00 +15°C° 0.2 mm 5 m/S 743 mmHg 72%
    18:00 +14°C° 0.2 mm 5 m/S 743 mmHg 77%
    19:00 +13°C° 0.2 mm 5 m/S 743 mmHg 83%
    20:00 +13°C° 0.7 mm 5 m/S 743 mmHg 86%
    21:00 +12°C° 0.7 mm 5 m/S 743 mmHg 88%
    22:00 +11°C° 0.7 mm 6 m/S 743 mmHg 91%
    23:00 +11°C° 0.9 mm 6 m/S 743 mmHg 91%

    1 Juni, Montag

    Zeit Temperatur Niederschläge Wind Luftdruck Luftfeuchtigkeit
    00:00 +11°C° 0.9 mm 6 m/S 743 mmHg 92%
    01:00 +11°C° 0.9 mm 6 m/S 742 mmHg 92%
    02:00 +11°C° 1.2 mm 6 m/S 742 mmHg 92%
    03:00 +11°C° 1.2 mm 6 m/S 742 mmHg 92%
    04:00 +12°C° 1.2 mm 5 m/S 742 mmHg 92%
    05:00 +12°C° 0 mm 5 m/S 742 mmHg 91%
    06:00 +13°C° 0 mm 5 m/S 742 mmHg 91%
    07:00 +13°C° 0 mm 5 m/S 743 mmHg 90%
    08:00 +14°C° 0 mm 5 m/S 743 mmHg 89%
    09:00 +14°C° 0 mm 5 m/S 743 mmHg 88%
    10:00 +15°C° 0 mm 4 m/S 743 mmHg 86%
    11:00 +17°C° 0.1 mm 4 m/S 743 mmHg 82%
    12:00 +17°C° 0.1 mm 5 m/S 743 mmHg 77%
    13:00 +20°C° 0.1 mm 5 m/S 743 mmHg 73%
    14:00 +20°C° 0.2 mm 5 m/S 742 mmHg 71%
    15:00 +21°C° 0.2 mm 5 m/S 742 mmHg 69%
    16:00 +21°C° 0.2 mm 4 m/S 742 mmHg 67%
    17:00 +20°C° 0.1 mm 4 m/S 742 mmHg 70%
    18:00 +19°C° 0.1 mm 3 m/S 742 mmHg 74%
    19:00 +18°C° 0.1 mm 3 m/S 742 mmHg 77%
    20:00 +17°C° 0.1 mm 3 m/S 743 mmHg 80%
    21:00 +16°C° 0.1 mm 3 m/S 743 mmHg 83%
    22:00 +16°C° 0.1 mm 3 m/S 743 mmHg 86%
    23:00 +15°C° 0 mm 2 m/S 743 mmHg 87%
    Mehr zeigen